Simultaneous Nadir Overpasses (SNOs) Predictions

Prediction of SNOs between LANDSAT-8 and NPP Satellite Orbit:

Table of predicted SNOs for the next 14.0 days since TLE Epoch: 10/15/2017
Index Date (LANDSAT-8) Time (LANDSAT-8) Lat,Lon (LANDSAT-8) SZA (LANDSAT-8 ) Date (NPP) Time (NPP) Lat,Lon (NPP) SZA (NPP ) Distance(km) Time Diff (sec)
1 10/15/2017 22:25:43 -70.17, 20.16 101.10 10/15/2017 22:24:32 -70.19, 20.19 101.07 3.04 71
2 10/15/2017 23:15:10 70.07,-172.34 78.82 10/15/2017 23:15:16 70.07,-172.32 78.83 0.81 6
3 10/16/2017 00:04:43 -69.79, -5.09 101.45 10/16/2017 00:05:55 -69.83, -4.64 101.41 18.19 72
4 10/18/2017 14:42:13 -70.13, 136.00 100.15 10/18/2017 14:41:26 -70.12, 136.06 100.16 2.71 47
5 10/18/2017 15:31:40 70.03, -56.51 79.76 10/18/2017 15:32:11 70.05, -56.53 79.79 2.69 31
6 10/21/2017 06:09:01 70.86, 85.33 81.54 10/21/2017 06:07:53 70.93, 83.21 81.61 77.43 68
7 10/21/2017 06:58:43 -70.10,-108.18 99.22 10/21/2017 06:58:21 -70.11,-108.16 99.21 1.31 22
8 10/21/2017 07:48:10 69.99, 59.32 80.69 10/21/2017 07:49:05 69.99, 59.33 80.69 0.51 55
9 10/23/2017 22:25:43 70.16,-159.84 81.77 10/23/2017 22:24:34 70.19,-159.83 81.80 2.74 69
10 10/23/2017 23:15:13 -70.06, 7.65 98.32 10/23/2017 23:15:15 -70.05, 7.70 98.33 2.37 2
11 10/24/2017 00:04:44 69.73, 174.83 81.36 10/24/2017 00:05:55 69.72, 175.50 81.35 25.92 71
12 10/26/2017 14:42:12 70.11, -44.03 82.65 10/26/2017 14:41:27 70.13, -43.98 82.66 2.58 45
13 10/26/2017 15:31:42 -70.01, 123.46 97.45 10/26/2017 15:32:09 -70.04, 123.47 97.42 3.38 27
14 10/29/2017 06:09:00 -70.99, -94.48 95.58 10/29/2017 06:07:53 -71.03, -96.97 95.55 89.95 67
15 10/29/2017 06:58:41 70.11, 71.85 83.54 10/29/2017 06:58:22 70.13, 71.79 83.56 2.97 19
16 10/29/2017 07:48:11 -70.01,-120.66 96.55 10/29/2017 07:49:03 -69.98,-120.68 96.58 3.24 52




NCC Satellite Simultaneous Nadir Overpasses (SNOs) Prediction Service
